Location: �couen
(49.0206°N, 2.3831°E)
Time: 22:20:15
(UTC+00:00)

ATLAS 3B R/B - Pass Details

Date: 23 May 2022
Orbit: 976 x 1218 km, 63.8° (Epoch: 20 June)

Event Time Altitude Azimuth Distance (km) Brightness Sun altitude
Rises 21:27:48 0° 317° (NW) 3,917 7.5 -13.7°
Reaches altitude 10° 21:30:30 10° 322° (NW) 2,992 6.5 -13.9°
Maximum altitude 21:37:33 57° 40° (NE) 1,355 3.3 -14.5°
Enters shadow 21:44:07 14° 117° (ESE) 2,855 4.4 -15.1°
